This demonstration page uses our WeatherBlox Daily Observations layout. Learn more.

Left ArrowRight Arrow

53.62937, 11.41316

Hourly Observations for April 12, 2018

Temp ( °F °C ) Dew Point ( °F °C ) Humidity (%) Winds ( mph kmh ) Pressure ( in mb ) Visibility ( mi km ) Precip ( " mm )
7:20 am 07:20 Mostly Sunny 39 4 39 4 100 100 NE 9 15 29.80 1009 7 11 N/A
7:50 am 07:50 Mostly Sunny 41 5 41 5 100 100 NE 9 15 29.80 1009 7 11 N/A
8:20 am 08:20 Mostly Sunny 43 6 41 5 93 93 NE 9 15 29.80 1009 7 11 N/A
8:50 am 08:50 Mostly Sunny 45 7 43 6 93 93 NE 9 15 29.80 1009 30 48 N/A
9:20 am 09:20 Mostly Sunny 45 7 43 6 93 93 NE 10 17 29.80 1009 30 48 N/A
9:50 am 09:50 Mostly Sunny 46 8 43 6 87 87 NE 13 20 29.80 1009 30 48 N/A
10:20 am 10:20 Mostly Sunny 48 9 45 7 87 87 NE 12 19 29.80 1009 30 48 N/A
10:50 am 10:50 Mostly Sunny 50 10 45 7 82 82 NE 13 20 29.77 1008 7 11 N/A
11:20 am 11:20 Mostly Sunny 52 11 45 7 77 77 NE 15 24 29.77 1008 7 11 N/A
11:50 am 11:50 Mostly Sunny 52 11 45 7 77 77 NNE 10 17 29.77 1008 7 11 N/A
12:20 pm 12:20 Mostly Sunny 52 11 43 6 72 72 NNE 14 22 29.74 1007 7 11 N/A
12:50 pm 12:50 Mostly Sunny 50 10 43 6 76 76 NNE 16 26 29.74 1007 7 11 N/A
1:20 pm 13:20 Mostly Sunny 55 13 45 7 67 67 NNE 12 19 29.74 1007 7 11 N/A
1:50 pm 13:50 Mostly Sunny 55 13 45 7 67 67 NNE 12 19 29.74 1007 7 11 N/A
2:20 pm 14:20 Mostly Sunny 59 15 48 9 68 68 NE 14 22 29.74 1007 7 11 N/A
2:50 pm 14:50 Mostly Sunny 59 15 48 9 68 68 NE 14 22 29.74 1007 7 11 N/A
3:20 pm 15:20 Mostly Sunny 57 14 46 8 67 67 NNE 12 19 29.71 1006 7 11 N/A
3:50 pm 15:50 Mostly Sunny 55 13 46 8 72 72 NE 13 20 29.71 1006 7 11 N/A
4:20 pm 16:20 Mostly Sunny 59 15 48 9 68 68 NE 15 24 29.71 1006 7 11 N/A
4:50 pm 16:50 Mostly Sunny 57 14 48 9 72 72 NE 16 26 29.71 1006 7 11 N/A
5:20 pm 17:20 Mostly Sunny 57 14 48 9 72 72 NE 15 24 29.71 1006 7 11 N/A
5:50 pm 17:50 Mostly Sunny 57 14 48 9 72 72 NE 13 20 29.71 1006 7 11 N/A
6:20 pm 18:20 Mostly Sunny 54 12 46 8 77 77 NNE 12 19 29.71 1006 7 11 N/A
6:50 pm 18:50 Mostly Sunny 52 11 45 7 77 77 NNE 9 15 29.71 1006 7 11 N/A
7:20 pm 19:20 Mostly Sunny 48 9 45 7 87 87 NNE 8 13 29.71 1006 7 11 N/A
7:50 pm 19:50 Mostly Sunny 48 9 45 7 87 87 NNE 8 13 29.71 1006 7 11 N/A
8:20 pm 20:20 Mostly Clear 46 8 43 6 87 87 NNE 8 13 29.71 1006 7 11 N/A
8:50 pm 20:50 Mostly Clear 46 8 43 6 87 87 NNE 8 13 29.71 1006 7 11 N/A

Powered by AerisWeather